Flag for U.S.A. Weather past 2 weeks in Kalispell, Montana, U.S.A.

Now
56 °F

Sunny.


Feels Like: 56 °F
Forecast: 45 / 80 °F
Wind: No wind

Location: Kalispell - Glacier Park International

Current Time: Jul 26, 2014 at 9:51:14 AM

Latest Report: Jul 26, 2014 at 8:55 AM


Visibility: 10 mi

Pressure: 30.17 "Hg

Humidity: 72%

Dew point: 47 °F

Location of KalispellLocation

Historic Weather in Kalispell — Graph

°F

Kalispell temperature yesterday

Maximum temperature yesterday: 75 °F (at 5:55 PM)
Minimum temperature yesterday: 45 °F (at 5:55 AM)
Average temperature yesterday: 62 °F

Past Weeks' High & Low Weather Summary

 TemperatureHumidityPressure
High94 °F (Jul 13, 6:55 PM)97% (Jul 17, 4:55 AM)30.17 "Hg (Jul 17, 4:55 AM)
Low42 °F (Jul 26, 5:55 AM)16% (Jul 13, 3:55 PM)29.67 "Hg (Jul 17, 4:55 PM)
Average68 °F59%29.96 "Hg
* Reported Jul 11 7:55 AM — Jul 26 7:55 AM, Kalispell, Weather by CustomWeather, © 2014

Note: Actual official high and low records may vary slightly from our data, if they occured in-between our weather recording intervals... More about our weather records

Advertising

Kalispell weather history for previous 24 hours

 ConditionsComfort  
Time TempWeatherWind HumidityBarometerVisibility
7:55 AM
Jul 26
53 °FSunny.No wind83%30.16 "Hg10 mi
6:55 AM43 °FClear.No wind93%30.15 "Hg10 mi
5:55 AM42 °FClear.No wind96%30.14 "Hg10 mi
4:55 AM43 °FClear.3 mph93%30.12 "Hg10 mi
3:55 AM43 °FClear.No wind93%30.11 "Hg10 mi
2:55 AM46 °FClear.3 mph86%30.09 "Hg10 mi
1:55 AM46 °FClear.No wind89%30.08 "Hg10 mi
12:55 AM47 °FClear.No wind83%30.07 "Hg10 mi
11:55 PM
Jul 25
51 °FClear.No wind77%30.06 "Hg10 mi
10:55 PM52 °FClear.3 mph75%30.05 "Hg10 mi
9:55 PM60 °FSunny.No wind52%30.03 "Hg10 mi
8:55 PM67 °FSunny.6 mph39%30.00 "Hg10 mi
7:55 PM72 °FSunny.8 mph31%29.99 "Hg10 mi
6:55 PM74 °FSunny.14 mph28%29.98 "Hg10 mi
5:55 PM75 °FScattered clouds.12 mph27%29.97 "Hg10 mi
4:55 PM72 °FPassing clouds.13 mph31%29.97 "Hg10 mi
3:55 PM72 °FScattered clouds.14 mph34%29.96 "Hg10 mi
2:55 PM74 °FPartly sunny.12 mph31%29.96 "Hg10 mi
1:55 PM73 °FSunny.12 mph32%29.96 "Hg10 mi
12:55 PM72 °FPassing clouds.17 mph33%29.97 "Hg10 mi
11:55 AM67 °FOvercast.13 mph39%29.99 "Hg10 mi
10:55 AM66 °FPartly sunny.7 mph42%30.00 "Hg10 mi
9:55 AM63 °FPartly sunny.8 mph54%30.02 "Hg10 mi
Weather by CustomWeather, © 2014

See weather overviewHow to use our weather pages